Location: Jastrz?bniki
(50.3667°N, 20.3833°E)
Time: 10:35:10
(UTC+00:00)

H-2A R/B - Pass Details

Date: 05 August 2024
Orbit: 550 x 565 km, 98.1° (Epoch: 07 September)

Event Time Altitude Azimuth Distance (km) Brightness Sun altitude
Rises 01:16:12 0° 10° (N) 2,793 8.1 -14.9°
Reaches altitude 10° 01:18:24 10° 6° (N) 1,889 7.0 -14.7°
Maximum altitude 01:22:23 53° 290° (WNW) 706 3.7 -14.3°
Enters shadow 01:24:35 24° 222° (SW) 1,197 4.4 -14.1°
